Regional Weather Roundup
Issued by NWS

Home | Current Version | Previous Version | Graphics & Text | Print | Product List | Glossary On
Versions: 1 2 3 4 5 6 7 8 9 10 11 12 13 14 15 16 17 18 19 20 21 22 23 24 25 26 27 28 29 30 31 32 33 34 35 36 37 38 39 40 41 42 43 44 45 46 47 48 49 50
000
ASUS43 KOAX 221610
RWRNE

WEATHER ROUNDUP FOR NEBRASKA
NATIONAL WEATHER SERVICE OMAHA NE
1000 AM CST WED FEB 22 2017

NOTES: SATELLITE DATA IS BEING USED TO AUGMENT CLOUD COVER ABOVE
       12000 FEET.
       "FAIR" INDICATES FEW OR NO CLOUDS BELOW 12,000 FEET WITH NO
       SIGNIFICANT WEATHER AND/OR OBSTRUCTIONS TO VISIBILITY.

  * THESE STATIONS DO NOT REPORT WEATHER SUCH AS RAIN...SNOW OR FOG.

NEZ001>004-019>022-054>056-221700-
NEBRASKA PANHANDLE

CITY           SKY/WX    TMP DP  RH WIND       PRES   REMARKS
SCOTTSBLUFF    MOSUNNY   50  23  34 W22G33    29.84F
ALLIANCE       MOSUNNY   50  24  36 W29G41    29.80R
CHADRON        MOSUNNY   50  25  37 W22       29.84R
KIMBALL        MOSUNNY   48  24  39 NW24G31   29.86F
SIDNEY         SUNNY     50  20  30 NW25G32   29.84F
$$

NEZ057>060-069>072-079>082-221700-
SOUTHWEST NEBRASKA

CITY           SKY/WX    TMP DP  RH WIND       PRES   REMARKS
NORTH PLATTE   SUNNY     52  34  50 W14       29.81S
IMPERIAL       SUNNY     49  31  49 W12       29.85F
LEXINGTON      SUNNY     53  36  52 NW18G24   29.79R
MCCOOK         SUNNY     56  36  47 NW17      29.81S
OGALLALA       SUNNY     50  32  50 SW9       29.83S
$$

NEZ005>010-023>029-035>040-094-221700-
NORTH CENTRAL NEBRASKA

CITY           SKY/WX    TMP DP  RH WIND       PRES   REMARKS
VALENTINE      SUNNY     53  30  41 W21G30    29.73F
AINSWORTH      SUNNY     53  35  49 W22       29.74S
BROKEN BOW     SUNNY     56  38  50 NW17      29.75R
O`NEILL        SUNNY     58  39  50 W20G26    29.71R
ORD            SUNNY     58  37  45 W15       29.71S
THEDFORD       SUNNY     53  32  45 NW17G25   29.79R
$$

NEZ041-046>049-061>064-073>077-083>087-221700-
SOUTH CENTRAL NEBRASKA

CITY           SKY/WX    TMP DP  RH WIND       PRES   REMARKS
GRAND ISLAND   SUNNY     58  36  43 NW12      29.72S
AURORA         SUNNY     58  34  40 NW14      29.71R
HASTINGS       SUNNY     60  34  37 N18       29.73S
HEBRON         SUNNY     58  30  35 NW12      29.71R
HOLDREGE       SUNNY     55  32  41 NW14G20   29.77R
KEARNEY *      SUNNY     57  34  41 NW17      29.75S
YORK           SUNNY     59  34  38 NW18      29.70R
$$

NEZ011>018-030>034-042>045-221700-
NORTHEAST NEBRASKA

CITY           SKY/WX    TMP DP  RH WIND       PRES   REMARKS
NORFOLK        SUNNY     54  36  50 W6        29.66S
ALBION         SUNNY     60  36  40 NW8       29.70R
BLAIR          SUNNY     54  35  48 W9        29.65S
FREMONT        SUNNY     52  35  52 W3        29.65F
TEKAMAH        SUNNY     55  34  45 VRB3      29.64F
WAYNE          SUNNY     58  40  50 N5        29.65F
$$

NEZ050>053-065>068-078-088>093-221700-
SOUTHEAST NEBRASKA

CITY           SKY/WX    TMP DP  RH WIND       PRES   REMARKS
LINCOLN        SUNNY     58  32  37 NW9       29.68S
OMAHA EPPLEY   SUNNY     59  36  42 W10       29.66R
BEATRICE       SUNNY     58  34  39 W12G20    29.69R
FALLS CITY     SUNNY     65  34  31 SW17G26   29.67F
NEBRASKA CITY  SUNNY     59  30  33 SW17      29.67R
PLATTSMOUTH    SUNNY     57  33  40 SW15      29.67R
$$

NEZ044-045-051>053-067-221700-
OMAHA AREA

CITY           SKY/WX    TMP DP  RH WIND       PRES   REMARKS
OMAHA EPPLEY   SUNNY     59  36  42 W10       29.66R
BLAIR          SUNNY     54  35  48 W9        29.65S
FREMONT        SUNNY     52  35  52 W3        29.65F
MILLARD        SUNNY     58  37  44 W8        29.66S
OFFUTT AFB     SUNNY     58  38  47 SW12      29.66R
PLATTSMOUTH    SUNNY     57  33  40 SW15      29.67R
WAHOO          FAIR      57  32  38 NW12      29.66S
$$




USA.gov is the U.S. government's official web portal to all federal, state and local government web resources and services.